Flag for Dominican Republic Weather past 2 weeks in Santiago de los Caballeros, Dominican Republic

Now
75 °F

Passing clouds.


Feels Like: 74 °F
Forecast: 70 / 91 °F
Wind: No wind

Location: Santiago

Current Time: Aug 20, 2014 at 5:25:49 AM

Latest Report: Aug 20, 2014 at 5:00 AM


Visibility: N/A

Pressure: 29.98 "Hg

Humidity: 94%

Dew point: 73 °F

Location of Santiago de los CaballerosLocation

Historic Weather in Santiago de los Caballeros — Graph

°F

Santiago de los Caballeros temperature yesterday

Maximum temperature yesterday: 93 °F (at 2:00 PM)
Minimum temperature yesterday: 73 °F (at 5:00 AM)
Average temperature yesterday: 82 °F

Past Weeks' High & Low Weather Summary

 TemperatureHumidityPressure
High95 °F (Aug 13, 3:00 PM)100% (Aug 5, 7:00 AM)30.09 "Hg (Aug 5, 7:00 AM)
Low68 °F (Aug 18, 11:00 AM)46% (Aug 10, 4:00 PM)29.92 "Hg (Aug 12, 3:00 PM)
Average82 °F78%30.02 "Hg
* Reported Aug 5 4:00 AM — Aug 20 4:00 AM, Santiago de los Caballeros, Weather by CustomWeather, © 2014

Note: Actual official high and low records may vary slightly from our data, if they occured in-between our weather recording intervals... More about our weather records

Advertising

Santiago de los Caballeros weather history for previous 24 hours

 ConditionsComfort  
Time TempWeatherWind HumidityBarometerVisibility
4:00 AM
Aug 20
75 °FPassing clouds.N/A94%29.98 "HgN/A
2:00 AM75 °FPassing clouds.No wind94%30.01 "HgN/A
1:00 AM75 °FPassing clouds.6 mph94%30.04 "HgN/A
12:00 AM77 °FPassing clouds.7 mph89%30.04 "HgN/A
11:00 PM
Aug 19
79 °FPassing clouds.7 mph84%30.04 "HgN/A
10:00 PM79 °FPassing clouds.7 mph79%30.04 "HgN/A
9:00 PM81 °FPassing clouds.14 mph79%30.01 "HgN/A
8:00 PM82 °FPassing clouds.12 mph70%29.98 "HgN/A
7:00 PM86 °FScattered clouds.17 mph62%29.95 "HgN/A
6:00 PM90 °FPassing clouds.12 mph59%29.95 "HgN/A
5:00 PM91 °FScattered clouds.18 mph49%29.92 "HgN/A
4:00 PM93 °FPassing clouds.12 mph47%29.92 "HgN/A
3:00 PM91 °FPassing clouds.17 mph63%29.95 "HgN/A
2:00 PM93 °FPassing clouds.16 mph49%29.95 "HgN/A
1:00 PM91 °FPassing clouds.18 mph52%29.98 "HgN/A
12:00 PM88 °FScattered clouds.12 mph62%30.01 "HgN/A
11:00 AM86 °FScattered clouds.14 mph66%30.01 "HgN/A
10:00 AM84 °FScattered clouds.10 mph70%30.01 "HgN/A
9:00 AM81 °FScattered clouds.12 mph84%30.01 "HgN/A
8:00 AM77 °FScattered clouds.9 mph94%30.01 "HgN/A
7:00 AM73 °FScattered clouds.6 mph94%29.98 "HgN/A
6:00 AM73 °FPassing clouds.7 mph94%29.98 "HgN/A
5:00 AM73 °FPassing clouds.No wind94%29.98 "HgN/A
Weather by CustomWeather, © 2014

See weather overviewHow to use our weather pages